This is the latest recevied weather packets stored in our database for station/object DL1GRJ-13. If no packets are shown the sender has not sent any weather packets the latest 10 day(s).
| Time | Temp. | Humidity | Pressure | Rain* | Wind** | Luminosity | Snow |
|---|---|---|---|---|---|---|---|
| 1777872663 | 11.11° C | 54% | 1016.8 hPa | - | - | - | - |
| 1777870863 | 10.56° C | 54% | 1017 hPa | - | - | - | - |
| 1777869063 | 10° C | 56% | 1017 hPa | - | - | - | - |
| 1777867263 | 8.89° C | 58% | 1017.1 hPa | - | - | - | - |
| 1777865463 | 8.89° C | 58% | 1017.3 hPa | - | - | - | - |
| 1777863662 | 8.89° C | 57% | 1017.3 hPa | - | - | - | - |
| 1777861862 | 8.89° C | 58% | 1017.5 hPa | - | - | - | - |
| 1777860062 | 9.44° C | 55% | 1017.5 hPa | - | - | - | - |
| 1777858262 | 10° C | 56% | 1017.5 hPa | - | - | - | - |
| 1777856462 | 10.56° C | 54% | 1017.6 hPa | - | - | - | - |
| 1777854662 | 10.56° C | 54% | 1017.6 hPa | - | - | - | - |
| 1777852862 | 11.11° C | 54% | 1017.6 hPa | - | - | - | - |
| 1777851062 | 11.67° C | 52% | 1017.6 hPa | - | - | - | - |
| 1777849262 | 11.67° C | 51% | 1017.5 hPa | - | - | - | - |
| 1777847461 | 11.67° C | 50% | 1017.6 hPa | - | - | - | - |
| 1777845661 | 12.22° C | 49% | 1017.6 hPa | - | - | - | - |
| 1777843861 | 12.22° C | 48% | 1017.4 hPa | - | - | - | - |
| 1777842061 | 12.22° C | 46% | 1017.5 hPa | - | - | - | - |
| 1777840261 | 12.22° C | 46% | 1017.4 hPa | - | - | - | - |
| 1777838461 | 12.22° C | 46% | 1017.4 hPa | - | - | - | - |
| 1777836661 | 12.22° C | 44% | 1017.2 hPa | - | - | - | - |
| 1777834860 | 12.22° C | 43% | 1017.1 hPa | - | - | - | - |
| 1777833060 | 12.78° C | 43% | 1017.1 hPa | - | - | - | - |
| 1777831260 | 12.78° C | 44% | 1016.9 hPa | - | - | - | - |
| 1777829460 | 13.33° C | 45% | 1017.2 hPa | - | - | - | - |
* Rain since midnight (hover to see other rain measurements)
** Current wind speed in m/s (hover to see current wind gust speed)